• In Hungary
  • List of Countries
  • For 7 days
  • Water Temperature
  • Satellite Maps
  • Weather Map
  • News
  • Weather Widgets
  • user-avatar
    Login

    Hourly Weather Santa Cruz de la Sierra

    Today, 17 December, Sunday

    Time Temperature Precipitation Wind Pressure Humidity
    00:00 +29°C° 0 mm 3 mps 719 mmHg 66%
    01:00 +28°C° 0 mm 3 mps 719 mmHg 69%
    02:00 +28°C° 0 mm 3 mps 719 mmHg 71%
    03:00 +28°C° 0 mm 3 mps 719 mmHg 73%
    04:00 +27°C° 0 mm 3 mps 719 mmHg 74%
    05:00 +27°C° 0 mm 4 mps 719 mmHg 76%
    06:00 +28°C° 0 mm 4 mps 719 mmHg 74%
    07:00 +28°C° 0 mm 5 mps 720 mmHg 71%
    08:00 +29°C° 0 mm 5 mps 720 mmHg 69%
    09:00 +30°C° 0 mm 5 mps 720 mmHg 65%
    10:00 +33°C° 0 mm 5 mps 720 mmHg 60%
    11:00 +34°C° 0 mm 6 mps 720 mmHg 56%
    12:00 +35°C° 0 mm 5 mps 719 mmHg 52%
    13:00 +36°C° 0 mm 5 mps 719 mmHg 48%
    14:00 +39°C° 0 mm 5 mps 718 mmHg 44%
    15:00 +39°C° 0 mm 5 mps 718 mmHg 44%
    16:00 +37°C° 0 mm 4 mps 717 mmHg 44%
    17:00 +37°C° 0 mm 4 mps 717 mmHg 44%
    18:00 +35°C° 0 mm 3 mps 718 mmHg 50%
    19:00 +34°C° 0 mm 2 mps 718 mmHg 56%
    20:00 +31°C° 0 mm 1 mps 719 mmHg 62%
    21:00 +30°C° 0 mm 1 mps 720 mmHg 65%
    22:00 +30°C° 0 mm 1 mps 721 mmHg 68%
    23:00 +29°C° 0 mm 1 mps 721 mmHg 71%

    Tomorrow, 18 December, Monday

    Time Temperature Precipitation Wind Pressure Humidity
    00:00 +28°C° 2.2 mm 1 mps 721 mmHg 78%
    01:00 +27°C° 2.2 mm 1 mps 721 mmHg 86%
    02:00 +26°C° 2.2 mm 1 mps 721 mmHg 93%
    03:00 +25°C° 2.6 mm 1 mps 722 mmHg 94%
    04:00 +25°C° 2.6 mm 2 mps 722 mmHg 95%
    05:00 +25°C° 2.6 mm 3 mps 722 mmHg 96%
    06:00 +25°C° 0.4 mm 3 mps 723 mmHg 94%
    07:00 +25°C° 0.4 mm 4 mps 724 mmHg 93%
    08:00 +25°C° 0.4 mm 4 mps 725 mmHg 91%
    09:00 +26°C° 0.1 mm 4 mps 725 mmHg 83%
    10:00 +27°C° 0.1 mm 4 mps 725 mmHg 76%
    11:00 +28°C° 0.1 mm 4 mps 725 mmHg 68%
    12:00 +30°C° 0 mm 4 mps 725 mmHg 63%
    13:00 +32°C° 0 mm 4 mps 724 mmHg 57%
    14:00 +33°C° 0 mm 4 mps 723 mmHg 52%
    15:00 +33°C° 0 mm 3 mps 722 mmHg 53%
    16:00 +33°C° 0 mm 3 mps 722 mmHg 54%
    17:00 +31°C° 0 mm 3 mps 721 mmHg 55%
    18:00 +30°C° 0 mm 3 mps 722 mmHg 59%
    19:00 +29°C° 0 mm 2 mps 722 mmHg 63%
    20:00 +27°C° 0 mm 2 mps 723 mmHg 67%
    21:00 +27°C° 0 mm 2 mps 723 mmHg 69%
    22:00 +27°C° 0 mm 2 mps 724 mmHg 70%
    23:00 +26°C° 0 mm 2 mps 724 mmHg 71%

    Day after tomorrow, 19 December, Tuesday

    Time Temperature Precipitation Wind Pressure Humidity
    00:00 +26°C° 0 mm 2 mps 724 mmHg 71%
    01:00 +25°C° 0 mm 2 mps 723 mmHg 72%
    02:00 +25°C° 0 mm 2 mps 723 mmHg 72%
    03:00 +25°C° 0 mm 2 mps 723 mmHg 72%
    04:00 +24°C° 0 mm 2 mps 723 mmHg 73%
    05:00 +24°C° 0 mm 2 mps 723 mmHg 73%
    06:00 +26°C° 0 mm 2 mps 723 mmHg 69%
    07:00 +28°C° 0 mm 2 mps 724 mmHg 65%
    08:00 +29°C° 0 mm 2 mps 724 mmHg 61%
    09:00 +31°C° 0 mm 2 mps 724 mmHg 56%
    10:00 +34°C° 0 mm 2 mps 724 mmHg 51%
    11:00 +35°C° 0 mm 2 mps 724 mmHg 46%
    12:00 +36°C° 0.1 mm 2 mps 723 mmHg 43%
    13:00 +37°C° 0.1 mm 2 mps 722 mmHg 41%
    14:00 +38°C° 0.1 mm 2 mps 721 mmHg 38%
    15:00 +38°C° 0 mm 2 mps 721 mmHg 39%
    16:00 +37°C° 0 mm 2 mps 720 mmHg 40%
    17:00 +37°C° 0 mm 2 mps 720 mmHg 41%
    18:00 +35°C° 0 mm 2 mps 720 mmHg 47%
    19:00 +31°C° 0 mm 1 mps 720 mmHg 53%
    20:00 +29°C° 0 mm 1 mps 721 mmHg 60%
    21:00 +29°C° 0.1 mm 1 mps 721 mmHg 64%
    22:00 +28°C° 0.1 mm 1 mps 722 mmHg 67%
    23:00 +27°C° 0.1 mm 1 mps 722 mmHg 71%

    20 December, Wednesday

    Time Temperature Precipitation Wind Pressure Humidity
    00:00 +27°C° 0.4 mm 1 mps 722 mmHg 76%
    01:00 +26°C° 0.4 mm 1 mps 721 mmHg 82%
    02:00 +25°C° 0.4 mm 1 mps 721 mmHg 87%
    03:00 +25°C° 0.1 mm 1 mps 721 mmHg 89%
    04:00 +24°C° 0.1 mm 1 mps 721 mmHg 91%
    05:00 +24°C° 0.1 mm 1 mps 721 mmHg 92%
    06:00 +25°C° 0 mm 2 mps 722 mmHg 88%
    07:00 +27°C° 0 mm 2 mps 722 mmHg 83%
    08:00 +28°C° 0 mm 2 mps 723 mmHg 78%
    09:00 +30°C° 0 mm 3 mps 723 mmHg 69%
    10:00 +33°C° 0 mm 3 mps 722 mmHg 60%
    11:00 +35°C° 0 mm 4 mps 722 mmHg 50%
    12:00 +36°C° 0 mm 4 mps 721 mmHg 47%
    13:00 +37°C° 0 mm 4 mps 720 mmHg 44%
    14:00 +37°C° 0 mm 4 mps 719 mmHg 41%
    15:00 +37°C° 0 mm 4 mps 719 mmHg 43%
    16:00 +36°C° 0 mm 4 mps 718 mmHg 45%
    17:00 +36°C° 0 mm 3 mps 718 mmHg 46%
    18:00 +34°C° 0 mm 3 mps 718 mmHg 52%
    19:00 +33°C° 0 mm 3 mps 719 mmHg 57%
    20:00 +30°C° 0 mm 2 mps 719 mmHg 62%
    21:00 +29°C° 0 mm 2 mps 719 mmHg 66%
    22:00 +28°C° 0 mm 2 mps 720 mmHg 71%
    23:00 +28°C° 0 mm 2 mps 720 mmHg 75%

    21 December, Thursday

    Time Temperature Precipitation Wind Pressure Humidity
    00:00 +27°C° 0 mm 2 mps 720 mmHg 78%
    01:00 +27°C° 0 mm 2 mps 719 mmHg 81%
    02:00 +26°C° 0 mm 2 mps 719 mmHg 84%
    03:00 +26°C° 0 mm 3 mps 719 mmHg 84%
    04:00 +26°C° 0 mm 3 mps 719 mmHg 83%
    05:00 +26°C° 0 mm 3 mps 719 mmHg 83%
    06:00 +27°C° 0 mm 4 mps 720 mmHg 78%
    07:00 +28°C° 0 mm 4 mps 720 mmHg 73%
    08:00 +29°C° 0 mm 5 mps 721 mmHg 68%
    09:00 +30°C° 0 mm 5 mps 721 mmHg 63%
    10:00 +33°C° 0 mm 5 mps 720 mmHg 57%
    11:00 +34°C° 0 mm 6 mps 720 mmHg 52%
    12:00 +35°C° 0 mm 6 mps 719 mmHg 50%
    13:00 +35°C° 0 mm 5 mps 718 mmHg 49%
    14:00 +35°C° 0 mm 5 mps 718 mmHg 47%
    15:00 +35°C° 0 mm 5 mps 717 mmHg 50%
    16:00 +34°C° 0 mm 4 mps 717 mmHg 52%
    17:00 +33°C° 0 mm 4 mps 716 mmHg 55%
    18:00 +32°C° 0 mm 4 mps 717 mmHg 60%
    19:00 +30°C° 0 mm 3 mps 717 mmHg 65%
    20:00 +29°C° 0 mm 2 mps 718 mmHg 70%
    21:00 +28°C° 0 mm 2 mps 718 mmHg 73%
    22:00 +28°C° 0 mm 2 mps 719 mmHg 75%
    23:00 +28°C° 0 mm 2 mps 719 mmHg 78%

    22 December, Friday

    Time Temperature Precipitation Wind Pressure Humidity
    00:00 +27°C° 0.2 mm 3 mps 719 mmHg 81%
    01:00 +26°C° 0.2 mm 3 mps 718 mmHg 85%
    02:00 +26°C° 0.2 mm 3 mps 718 mmHg 88%
    03:00 +26°C° 0 mm 3 mps 718 mmHg 89%
    04:00 +25°C° 0 mm 3 mps 718 mmHg 89%
    05:00 +25°C° 0 mm 3 mps 718 mmHg 89%
    06:00 +26°C° 0.1 mm 3 mps 719 mmHg 86%
    07:00 +27°C° 0.1 mm 4 mps 719 mmHg 83%
    08:00 +27°C° 0.1 mm 4 mps 720 mmHg 80%
    09:00 +28°C° 0.2 mm 5 mps 719 mmHg 78%
    10:00 +28°C° 0.2 mm 5 mps 719 mmHg 76%
    11:00 +29°C° 0.2 mm 6 mps 719 mmHg 74%
    12:00 +29°C° 0.1 mm 6 mps 718 mmHg 73%
    13:00 +29°C° 0.1 mm 6 mps 717 mmHg 71%
    14:00 +30°C° 0.1 mm 6 mps 716 mmHg 69%
    15:00 +30°C° 0 mm 6 mps 716 mmHg 66%
    16:00 +32°C° 0 mm 6 mps 715 mmHg 62%
    17:00 +32°C° 0 mm 6 mps 715 mmHg 59%
    18:00 +30°C° 0.1 mm 5 mps 716 mmHg 64%
    19:00 +29°C° 0.1 mm 4 mps 716 mmHg 70%
    20:00 +28°C° 0.1 mm 4 mps 717 mmHg 75%
    21:00 +28°C° 0.1 mm 4 mps 717 mmHg 76%
    22:00 +27°C° 0.1 mm 4 mps 717 mmHg 78%
    23:00 +27°C° 0.1 mm 4 mps 718 mmHg 79%
    Show more